LROP Weather Reports


time (UTC)temp
C
wind
direction
speed
KPH
gust
KPH
rain 1hr
cm
rain 24hr
cm
rain mn
cm
humidity
%
barometer
mb
20260831103302 30 130 9.7 0.0 0.00 0.00 0.00 33 1018.0
20260831101802 30 80 11.3 0.0 0.00 0.00 0.00 31 1018.0
20260831100302 30 80 11.3 0.0 0.00 0.00 0.00 31 1018.0
20260831094802 28 120 11.3 0.0 0.00 0.00 0.00 31 1018.0
20260831093415 28 110 9.7 0.0 0.00 0.00 0.00 35 1018.0
20260831091802 28 110 9.7 0.0 0.00 0.00 0.00 35 1018.0
20260831090302 28 110 9.7 0.0 0.00 0.00 0.00 35 1018.0
20260831084802 27 110 11.3 0.0 0.00 0.00 0.00 35 1018.0
20260831083302 27 110 11.3 0.0 0.00 0.00 0.00 35 1018.0
20260831081915 27 80 11.3 0.0 0.00 0.00 0.00 37 1018.0
20260831080302 27 80 11.3 0.0 0.00 0.00 0.00 37 1018.0
20260831074815 26 80 11.3 0.0 0.00 0.00 0.00 45 1019.0
20260831073302 26 80 11.3 0.0 0.00 0.00 0.00 45 1019.0
20260831071830 25 60 12.9 0.0 0.00 0.00 0.00 51 1018.0
20260831070302 25 60 12.9 0.0 0.00 0.00 0.00 51 1018.0
20260831064802 22 60 8.0 0.0 0.00 0.00 0.00 57 1018.0
20260831063302 22 60 8.0 0.0 0.00 0.00 0.00 57 1018.0
20260831061803 22 50 8.0 0.0 0.00 0.00 0.00 65 1019.0
20260831060302 22 50 8.0 0.0 0.00 0.00 0.00 65 1019.0
20260831054803 20 70 8.0 0.0 0.00 0.00 0.00 73 1019.0
20260831053302 20 70 8.0 0.0 0.00 0.00 0.00 73 1019.0
20260831051802 20 80 9.7 0.0 0.00 0.00 0.00 73 1018.0
20260831050302 20 80 9.7 0.0 0.00 0.00 0.00 73 1018.0
20260831044804 17 80 8.0 0.0 0.00 0.00 0.00 83 1018.0
20260831043306 17 80 8.0 0.0 0.00 0.00 0.00 83 1018.0
20260831041802 17 80 4.8 0.0 0.00 0.00 0.00 83 1018.0
20260831040302 17 80 4.8 0.0 0.00 0.00 0.00 83 1018.0
20260831034802 17 30 9.7 0.0 0.00 0.00 0.00 83 1018.0
20260831033302 17 30 9.7 0.0 0.00 0.00 0.00 83 1018.0
20260831031802 17 20 4.8 0.0 0.00 0.00 0.00 83 1018.0
20260831030303 17 20 4.8 0.0 0.00 0.00 0.00 83 1018.0
20260831024802 17 70 8.0 0.0 0.00 0.00 0.00 83 1018.0
20260831023310 17 70 8.0 0.0 0.00 0.00 0.00 83 1018.0
20260831021802 17 30 8.0 0.0 0.00 0.00 0.00 88 1018.0
20260831020304 17 30 8.0 0.0 0.00 0.00 0.00 88 1018.0
20260831014802 18 20 8.0 0.0 0.00 0.00 0.00 83 1018.0
20260831013301 18 20 8.0 0.0 0.00 0.00 0.00 83 1018.0
20260831011803 18 10 8.0 0.0 0.00 0.00 0.00 83 1018.0
20260831010302 18 10 8.0 0.0 0.00 0.00 0.00 83 1018.0
20260831004802 18 360 9.7 0.0 0.00 0.00 0.00 78 1018.0
20260831003302 18 360 9.7 0.0 0.00 0.00 0.00 78 1018.0
20260831001801 18 10 9.7 0.0 0.00 0.00 0.00 78 1018.0
20260831000303 18 10 9.7 0.0 0.00 0.00 0.00 78 1018.0
20260830234802 18 40 8.0 0.0 0.00 0.00 0.00 78 1018.0
20260830233302 18 40 8.0 0.0 0.00 0.00 0.00 78 1018.0
20260830231803 20 60 4.8 0.0 0.00 0.00 0.00 78 1018.0
20260830230303 20 60 4.8 0.0 0.00 0.00 0.00 78 1018.0
20260830224802 20 90 8.0 0.0 0.00 0.00 0.00 73 1018.0
20260830223302 20 90 8.0 0.0 0.00 0.00 0.00 73 1018.0
20260830221801 21 100 8.0 0.0 0.00 0.00 0.00 69 1018.0
20260830220302 21 100 8.0 0.0 0.00 0.00 0.00 69 1018.0
20260830214801 20 100 4.8 0.0 0.00 0.00 0.00 78 1018.0
20260830213302 20 100 4.8 0.0 0.00 0.00 0.00 78 1018.0
20260830211802 21 80 9.7 0.0 0.00 0.00 0.00 73 1018.0
20260830210302 21 80 9.7 0.0 0.00 0.00 0.00 73 1018.0
20260830204802 22 80 1.6 0.0 0.00 0.00 0.00 73 1018.0
20260830203302 22 80 1.6 0.0 0.00 0.00 0.00 73 1018.0
20260830201802 22 0 0.0 0.0 0.00 0.00 0.00 69 1017.0
20260830200302 22 0 0.0 0.0 0.00 0.00 0.00 69 1017.0
20260830194802 22 0 0.0 0.0 0.00 0.00 0.00 69 1017.0
20260830193302 22 0 0.0 0.0 0.00 0.00 0.00 69 1017.0
20260830191803 22 110 4.8 0.0 0.00 0.00 0.00 65 1017.0
20260830190303 22 110 4.8 0.0 0.00 0.00 0.00 65 1017.0
20260830184802 22 100 4.8 0.0 0.00 0.00 0.00 61 1017.0
20260830183331 22 100 4.8 0.0 0.00 0.00 0.00 61 1017.0
20260830181803 23 110 8.0 0.0 0.00 0.00 0.00 57 1017.0
20260830180302 23 110 8.0 0.0 0.00 0.00 0.00 57 1017.0
20260830174802 23 100 8.0 0.0 0.00 0.00 0.00 57 1017.0
20260830173302 23 100 8.0 0.0 0.00 0.00 0.00 57 1017.0
20260830171802 25 110 8.0 0.0 0.00 0.00 0.00 51 1016.0
20260830170302 25 110 8.0 0.0 0.00 0.00 0.00 51 1016.0
20260830164802 26 120 9.7 0.0 0.00 0.00 0.00 48 1016.0
20260830163302 26 120 9.7 0.0 0.00 0.00 0.00 48 1016.0
20260830161802 27 110 9.7 0.0 0.00 0.00 0.00 45 1016.0
20260830160302 27 110 9.7 0.0 0.00 0.00 0.00 45 1016.0
20260830154802 28 120 8.0 0.0 0.00 0.00 0.00 37 1016.0
20260830153302 28 120 8.0 0.0 0.00 0.00 0.00 37 1016.0
20260830151802 30 110 8.0 0.0 0.00 0.00 0.00 33 1017.0
20260830150304 30 110 8.0 0.0 0.00 0.00 0.00 33 1017.0
20260830144803 30 90 8.0 0.0 0.00 0.00 0.00 33 1017.0
20260830143302 30 90 8.0 0.0 0.00 0.00 0.00 33 1017.0
20260830141802 30 160 8.0 0.0 0.00 0.00 0.00 35 1017.0
20260830140301 30 160 8.0 0.0 0.00 0.00 0.00 35 1017.0
20260830134802 30 140 11.3 0.0 0.00 0.00 0.00 38 1017.0
20260830133315 30 140 11.3 0.0 0.00 0.00 0.00 38 1017.0
20260830131803 28 3.2 0.0 0.00 0.00 0.00 35 1017.0
20260830130301 28 3.2 0.0 0.00 0.00 0.00 35 1017.0
20260830124802 30 3.2 0.0 0.00 0.00 0.00 35 1017.0
20260830123301 30 3.2 0.0 0.00 0.00 0.00 35 1017.0
20260830121916 28 60 8.0 0.0 0.00 0.00 0.00 40 1017.0
20260830120302 28 60 8.0 0.0 0.00 0.00 0.00 40 1017.0
20260830114803 28 8.0 0.0 0.00 0.00 0.00 40 1018.0
20260830113302 28 8.0 0.0 0.00 0.00 0.00 40 1018.0
20260830111802 28 8.0 0.0 0.00 0.00 0.00 40 1018.0
20260830110302 28 8.0 0.0 0.00 0.00 0.00 40 1018.0
20260830104801 28 8.0 0.0 0.00 0.00 0.00 40 1018.0